FW2998 Weather Reports


time (UTC)temp
F
wind
direction
speed
knots
gust
knots
rain 1hr
in
rain 24hr
in
rain mn
in
humidity
%
barometer
mb
20260905002024 87 0 0.0 0.0 0.00 0.00 0.00 68 1014.6
20260905001545 88 0 0.0 0.0 0.00 0.00 0.00 67 1014.6
20260905001023 88 0 0.0 0.0 0.00 0.00 0.00 67 1014.6
20260905000523 88 0 0.0 0.0 0.00 0.00 0.00 66 1014.6
20260905000043 89 0 0.0 0.0 0.00 0.00 0.00 66 1014.5
20260904235523 89 0 0.0 0.0 0.00 0.00 0.00 65 1014.4
20260904235024 89 0 0.0 0.0 0.00 0.00 0.00 64 1014.4
20260904234541 90 0 0.0 0.0 0.00 0.00 0.00 63 1014.4
20260904234023 90 0 0.0 0.0 0.00 0.00 0.00 63 1014.3
20260904233520 91 0 0.0 0.0 0.00 0.00 0.00 62 1014.2
20260904233052 91 0 0.0 0.0 0.00 0.00 0.00 62 1014.3
20260904232526 91 0 0.0 0.0 0.00 0.00 0.00 62 1014.3
20260904232022 92 0 0.0 0.0 0.00 0.00 0.00 61 1014.3
20260904231546 92 0 0.0 0.0 0.00 0.00 0.00 61 1014.4
20260904231023 93 0 0.0 0.0 0.00 0.00 0.00 59 1014.3
20260904230522 93 0 0.0 0.0 0.00 0.00 0.00 59 1014.3
20260904230043 93 0 0.0 0.0 0.00 0.00 0.00 58 1014.4
20260904225523 94 0 0.0 0.0 0.00 0.00 0.00 58 1014.4
20260904225025 94 0 0.0 0.0 0.00 0.00 0.00 57 1014.3
20260904224559 94 0 0.0 0.0 0.00 0.00 0.00 57 1014.2
20260904224024 95 0 0.0 0.0 0.00 0.00 0.00 57 1014.3
20260904223525 95 0 0.0 0.0 0.00 0.00 0.00 57 1014.2
20260904223049 95 0 0.0 0.0 0.00 0.00 0.00 56 1014.2
20260904222525 96 0 0.0 0.0 0.00 0.00 0.00 55 1014.2
20260904222024 96 0 0.0 0.0 0.00 0.00 0.00 54 1014.2
20260904221548 96 0 0.0 0.0 0.00 0.00 0.00 55 1014.1
20260904221021 96 0 0.0 0.0 0.00 0.00 0.00 54 1014.1
20260904220528 97 0 0.0 0.0 0.00 0.00 0.00 53 1014.1
20260904220045 97 0 0.0 0.0 0.00 0.00 0.00 53 1014.1
20260904215521 97 0 0.0 0.0 0.00 0.00 0.00 54 1014.2
20260904215024 98 0 0.0 0.0 0.00 0.00 0.00 52 1014.2
20260904214546 98 0 0.0 0.0 0.00 0.00 0.00 52 1014.2
20260904214023 98 0 0.0 0.0 0.00 0.00 0.00 51 1014.3
20260904213524 98 0 0.0 0.0 0.00 0.00 0.00 51 1014.2
20260904213044 99 0 0.0 0.0 0.00 0.00 0.00 51 1014.2
20260904212524 99 0 0.0 0.0 0.00 0.00 0.00 51 1014.2
20260904212023 99 0 0.0 0.0 0.00 0.00 0.00 52 1014.2
20260904211544 99 0 0.0 0.0 0.00 0.00 0.00 52 1014.3
20260904211025 99 0 0.0 0.0 0.00 0.00 0.00 51 1014.3
20260904210526 99 0 0.0 0.0 0.00 0.00 0.00 51 1014.3
20260904210053 99 0 0.0 0.0 0.00 0.00 0.00 49 1014.3
20260904205524 99 0 0.0 0.0 0.00 0.00 0.00 51 1014.4
20260904205020 99 0 0.0 0.0 0.00 0.00 0.00 52 1014.4
20260904204544 99 0 0.0 0.0 0.00 0.00 0.00 52 1014.5
20260904204024 98 0 0.0 0.0 0.00 0.00 0.00 51 1014.5
20260904203523 98 0 0.0 0.0 0.00 0.00 0.00 53 1014.6
20260904203044 98 0 0.0 0.0 0.00 0.00 0.00 53 1014.6
20260904202524 97 0 0.0 0.0 0.00 0.00 0.00 53 1014.7
20260904202024 97 0 0.0 0.0 0.00 0.00 0.00 55 1014.9
20260904201551 96 0 0.0 0.0 0.00 0.00 0.00 55 1015.0
20260904201020 95 0 0.0 0.0 0.00 0.00 0.00 55 1015.0
20260904200524 95 0 0.0 0.0 0.00 0.00 0.00 56 1015.1
20260904200121 94 0 0.0 0.0 0.00 0.00 0.00 54 1015.1
20260904195526 95 0 0.0 0.0 0.00 0.00 0.00 54 1015.2
20260904195019 94 0 0.0 0.0 0.00 0.00 0.00 56 1015.2
20260904194600 95 0 0.0 0.0 0.00 0.00 0.00 55 1015.4
20260904194023 95 0 0.0 0.0 0.00 0.00 0.00 54 1015.5
20260904193522 95 0 0.0 0.0 0.00 0.00 0.00 54 1015.5
20260904193043 95 0 0.0 0.0 0.00 0.00 0.00 55 1015.5
20260904192522 95 0 0.0 0.0 0.00 0.00 0.00 57 1015.5
20260904192027 94 0 0.0 0.0 0.00 0.00 0.00 54 1015.5
20260904191547 94 0 0.0 0.0 0.00 0.00 0.00 56 1015.6
20260904191021 94 0 0.0 0.0 0.00 0.00 0.00 57 1015.6
20260904190524 94 0 0.0 0.0 0.00 0.00 0.00 57 1015.8
20260904190046 94 0 0.0 0.0 0.00 0.00 0.00 58 1015.9
20260904185518 94 0 0.0 0.0 0.00 0.00 0.00 60 1015.9
20260904185021 94 0 0.0 0.0 0.00 0.00 0.00 57 1016.2
20260904184544 94 0 0.0 0.0 0.00 0.00 0.00 60 1016.2
20260904184024 93 0 0.0 0.0 0.00 0.00 0.00 61 1016.3
20260904183522 93 0 0.0 0.0 0.00 0.00 0.00 61 1016.3
20260904183043 93 0 0.0 0.0 0.00 0.00 0.00 61 1016.4
20260904182521 94 0 0.0 0.0 0.00 0.00 0.00 64 1016.4
20260904182028 93 0 0.0 0.0 0.00 0.00 0.00 61 1016.4
20260904181543 93 0 0.0 0.0 0.00 0.00 0.00 63 1016.5
20260904181024 93 0 0.0 0.0 0.00 0.00 0.00 63 1016.6
20260904180526 92 0 0.0 0.0 0.00 0.00 0.00 63 1016.6
20260904180044 92 0 0.0 0.0 0.00 0.00 0.00 64 1016.6
20260904175521 92 0 0.0 0.0 0.00 0.00 0.00 62 1016.7
20260904175025 92 0 0.0 0.0 0.00 0.00 0.00 62 1016.8
20260904174547 93 0 0.0 0.0 0.00 0.00 0.00 64 1016.7
20260904174025 92 0 0.0 0.0 0.00 0.00 0.00 64 1016.8
20260904173523 92 0 0.0 0.0 0.00 0.00 0.00 65 1016.8
20260904173102 92 0 0.0 0.0 0.00 0.00 0.00 66 1016.9
20260904172520 92 0 0.0 0.0 0.00 0.00 0.00 63 1017.0
20260904172019 92 0 0.0 0.0 0.00 0.00 0.00 65 1017.0
20260904171555 91 0 0.0 0.0 0.00 0.00 0.00 67 1017.0
20260904171022 91 0 0.0 0.0 0.00 0.00 0.00 65 1017.1
20260904170525 91 0 0.0 0.0 0.00 0.00 0.00 66 1017.1
20260904170045 91 0 0.0 0.0 0.00 0.00 0.00 66 1017.1
20260904165618 91 0 0.0 0.0 0.00 0.00 0.00 69 1017.1
20260904165023 90 0 0.0 0.0 0.00 0.00 0.00 69 1017.3
20260904164548 90 0 0.0 0.0 0.00 0.00 0.00 68 1017.4
20260904164025 90 0 0.0 0.0 0.00 0.00 0.00 68 1017.5
20260904163524 90 0 0.0 0.0 0.00 0.00 0.00 68 1017.5
20260904163046 90 0 0.0 0.0 0.00 0.00 0.00 69 1017.6
20260904162522 89 0 0.0 0.0 0.00 0.00 0.00 67 1017.6
20260904162019 89 0 0.0 0.0 0.00 0.00 0.00 68 1017.8
20260904161544 89 0 0.0 0.0 0.00 0.00 0.00 69 1017.9
20260904161022 89 0 0.0 0.0 0.00 0.00 0.00 70 1018.0
20260904160524 89 0 0.0 0.0 0.00 0.00 0.00 72 1018.0
20260904160044 89 0 0.0 0.0 0.00 0.00 0.00 71 1018.0
20260904155525 89 0 0.0 0.0 0.00 0.00 0.00 71 1018.1
20260904155022 88 0 0.0 0.0 0.00 0.00 0.00 74 1018.1
20260904154542 88 0 0.0 0.0 0.00 0.00 0.00 74 1018.1
20260904154029 88 0 0.0 0.0 0.00 0.00 0.00 75 1018.1
20260904153525 87 0 0.0 0.0 0.00 0.00 0.00 74 1018.1
20260904153047 87 0 0.0 0.0 0.00 0.00 0.00 73 1018.1
20260904152520 87 0 0.0 0.0 0.00 0.00 0.00 75 1018.2
20260904152023 88 0 0.0 0.0 0.00 0.00 0.00 76 1018.1
20260904151544 88 0 0.0 0.0 0.00 0.00 0.00 75 1018.2
20260904151023 87 0 0.0 0.0 0.00 0.00 0.00 77 1018.2
20260904150523 86 0 0.0 0.0 0.00 0.00 0.00 79 1018.2
20260904145523 85 0 0.0 0.0 0.00 0.00 0.00 80 1018.2
20260904145027 84 0 0.0 0.0 0.00 0.00 0.00 80 1018.2
20260904144541 84 0 0.0 0.0 0.00 0.00 0.00 81 1018.2
20260904144024 84 0 0.0 0.0 0.00 0.00 0.00 81 1018.1
20260904143524 84 0 0.0 0.0 0.00 0.00 0.00 81 1018.1
20260904143046 84 0 0.0 0.0 0.00 0.00 0.00 81 1018.1
20260904142522 84 0 0.0 0.0 0.00 0.00 0.00 82 1018.1
20260904142019 84 0 0.0 0.0 0.00 0.00 0.00 81 1018.1
20260904141546 84 0 0.0 0.0 0.00 0.00 0.00 81 1018.1
20260904141022 84 0 0.0 0.0 0.00 0.00 0.00 82 1018.3
20260904140521 84 0 0.0 0.0 0.00 0.00 0.00 83 1018.2
20260904140044 84 0 0.0 0.0 0.00 0.00 0.00 85 1018.2
20260904135524 83 0 0.0 0.0 0.00 0.00 0.00 87 1018.1
20260904135025 83 0 0.0 0.0 0.00 0.00 0.00 89 1018.0
20260904134553 82 0 0.0 0.0 0.00 0.00 0.00 92 1018.0
20260904134024 81 0 0.0 0.0 0.00 0.00 0.00 94 1018.0
20260904133518 80 0 0.0 0.0 0.00 0.00 0.00 94 1018.1
20260904133044 79 0 0.0 0.0 0.00 0.00 0.00 94 1018.1
20260904132522 79 0 0.0 0.0 0.00 0.00 0.00 95 1018.1
20260904132018 79 0 0.0 0.0 0.00 0.00 0.00 95 1018.2
20260904131544 78 0 0.0 0.0 0.00 0.00 0.00 95 1018.2
20260904131022 78 0 0.0 0.0 0.00 0.00 0.00 95 1018.2
20260904130524 78 0 0.0 0.0 0.00 0.00 0.00 96 1018.1
20260904130044 78 0 0.0 0.0 0.00 0.00 0.00 96 1018.3
20260904125523 77 0 0.0 0.0 0.00 0.00 0.00 96 1018.1
20260904125025 77 0 0.0 0.0 0.00 0.00 0.00 95 1018.2
20260904124548 77 0 0.0 0.0 0.00 0.00 0.00 95 1018.1
20260904124027 77 0 0.0 0.0 0.00 0.00 0.00 95 1018.1
20260904123524 76 0 0.0 0.0 0.00 0.00 0.00 95 1018.2
20260904123044 76 0 0.0 0.0 0.00 0.00 0.00 96 1018.2
20260904122525 75 0 0.0 0.0 0.00 0.00 0.00 95 1018.2
20260904122025 75 0 0.0 0.0 0.00 0.00 0.00 95 1018.2
20260904121543 75 0 0.0 0.0 0.00 0.00 0.00 94 1018.2
20260904121020 75 0 0.0 0.0 0.00 0.00 0.00 94 1018.3
20260904120520 74 0 0.0 0.0 0.00 0.00 0.00 94 1018.1
20260904120052 74 0 0.0 0.0 0.00 0.00 0.00 94 1018.0
20260904115530 74 0 0.0 0.0 0.00 0.00 0.00 94 1018.0
20260904115021 74 0 0.0 0.0 0.00 0.00 0.00 93 1018.1
20260904114547 74 0 0.0 0.0 0.00 0.00 0.00 93 1018.0
20260904114022 74 0 0.0 0.0 0.00 0.00 0.00 93 1018.0
20260904113525 74 0 0.0 0.0 0.00 0.00 0.00 92 1017.9
20260904113044 74 0 0.0 0.0 0.00 0.00 0.00 92 1017.8
20260904112524 74 0 0.0 0.0 0.00 0.00 0.00 92 1017.7
20260904112025 74 0 0.0 0.0 0.00 0.00 0.00 92 1017.7
20260904111543 74 0 0.0 0.0 0.00 0.00 0.00 92 1017.7
20260904111023 74 0 0.0 0.0 0.00 0.00 0.00 92 1017.6
20260904110524 74 0 0.0 0.0 0.00 0.00 0.00 92 1017.6
20260904110046 74 0 0.0 0.0 0.00 0.00 0.00 92 1017.6
20260904105525 74 0 0.0 0.0 0.00 0.00 0.00 92 1017.6
20260904105019 74 0 0.0 0.0 0.00 0.00 0.00 92 1017.6
20260904104543 74 0 0.0 0.0 0.00 0.00 0.00 92 1017.5
20260904104022 74 0 0.0 0.0 0.00 0.00 0.00 92 1017.4
20260904103521 74 0 0.0 0.0 0.00 0.00 0.00 92 1017.3
20260904103043 74 0 0.0 0.0 0.00 0.00 0.00 91 1017.3
20260904102522 74 0 0.0 0.0 0.00 0.00 0.00 91 1017.3
20260904102021 74 0 0.0 0.0 0.00 0.00 0.00 91 1017.3
20260904101544 74 0 0.0 0.0 0.00 0.00 0.00 91 1017.3
20260904101020 74 0 0.0 0.0 0.00 0.00 0.00 91 1017.3
20260904100520 74 0 0.0 0.0 0.00 0.00 0.00 91 1017.3
20260904100050 74 0 0.0 0.0 0.00 0.00 0.00 91 1017.2
20260904095526 74 0 0.0 0.0 0.00 0.00 0.00 91 1017.1
20260904095023 74 0 0.0 0.0 0.00 0.00 0.00 91 1017.1
20260904094545 74 0 0.0 0.0 0.00 0.00 0.00 91 1017.1
20260904094021 74 0 0.0 0.0 0.00 0.00 0.00 91 1017.0
20260904093521 74 0 0.0 0.0 0.00 0.00 0.00 91 1016.9
20260904093043 74 0 0.0 0.0 0.00 0.00 0.00 90 1017.0
20260904092521 74 0 0.0 0.0 0.00 0.00 0.00 90 1017.0
20260904092024 74 0 0.0 0.0 0.00 0.00 0.00 90 1016.8
20260904091543 75 0 0.0 0.0 0.00 0.00 0.00 90 1016.8
20260904091020 75 0 0.0 0.0 0.00 0.00 0.00 90 1016.9
20260904090523 75 0 0.0 0.0 0.00 0.00 0.00 90 1016.8
20260904090043 75 0 0.0 0.0 0.00 0.00 0.00 90 1016.6
20260904085523 75 0 0.0 0.0 0.00 0.00 0.00 90 1016.7
20260904085023 75 0 0.0 0.0 0.00 0.00 0.00 90 1016.8
20260904084543 75 0 0.0 0.0 0.00 0.00 0.00 89 1016.7
20260904084020 75 0 0.0 0.0 0.00 0.00 0.00 89 1016.7
20260904083520 75 0 0.0 0.0 0.00 0.00 0.00 89 1016.7
20260904083048 75 0 0.0 0.0 0.00 0.00 0.00 89 1016.6
20260904082526 75 0 0.0 0.0 0.00 0.00 0.00 89 1016.5
20260904082027 75 0 0.0 0.0 0.00 0.00 0.00 89 1016.5
20260904081543 75 0 0.0 0.0 0.00 0.00 0.00 89 1016.6
20260904081024 76 0 0.0 0.0 0.00 0.00 0.00 89 1016.4
20260904080525 76 0 0.0 0.0 0.00 0.00 0.00 89 1016.4
20260904080045 76 0 0.0 0.0 0.00 0.00 0.00 89 1016.4
20260904075522 76 0 0.0 0.0 0.00 0.00 0.00 88 1016.4
20260904075023 76 0 0.0 0.0 0.00 0.00 0.00 88 1016.4
20260904074545 76 0 0.0 0.0 0.00 0.00 0.00 88 1016.5
20260904074021 76 0 0.0 0.0 0.00 0.00 0.00 88 1016.5
20260904073522 76 0 0.0 0.0 0.00 0.00 0.00 88 1016.5
20260904073048 76 0 0.0 0.0 0.00 0.00 0.00 88 1016.4
20260904072523 76 0 0.0 0.0 0.00 0.00 0.00 88 1016.4
20260904072027 76 0 0.0 0.0 0.00 0.00 0.00 88 1016.5
20260904071543 76 0 0.0 0.0 0.00 0.00 0.00 88 1016.6
20260904071024 76 0 0.0 0.0 0.00 0.00 0.00 88 1016.6
20260904070523 77 0 0.0 0.0 0.00 0.00 0.00 87 1016.7
20260904070047 77 0 0.0 0.0 0.00 0.00 0.00 87 1016.7
20260904065523 77 0 0.0 0.0 0.00 0.00 0.00 87 1016.7
20260904065026 77 0 0.0 0.0 0.00 0.00 0.00 87 1016.9
20260904064543 77 0 0.0 0.0 0.00 0.00 0.00 87 1016.9
20260904064024 77 0 0.0 0.0 0.00 0.00 0.00 86 1016.8
20260904063522 77 0 0.0 0.0 0.00 0.00 0.00 86 1016.9
20260904063043 77 0 0.0 0.0 0.00 0.00 0.00 86 1017.0
20260904062523 77 0 0.0 0.0 0.00 0.00 0.00 86 1017.1
20260904062023 77 0 0.0 0.0 0.00 0.00 0.00 85 1017.2
20260904061543 77 0 0.0 0.0 0.00 0.00 0.00 85 1017.2
20260904061024 77 0 0.0 0.0 0.00 0.00 0.00 85 1017.2
20260904060524 78 0 0.0 0.0 0.00 0.00 0.00 85 1017.3
20260904060045 78 0 0.0 0.0 0.00 0.00 0.00 85 1017.3
20260904055523 78 0 0.0 0.0 0.00 0.00 0.00 85 1017.3
20260904055024 78 0 0.0 0.0 0.00 0.00 0.00 85 1017.3
20260904054546 78 0 0.0 0.0 0.00 0.00 0.00 84 1017.5
20260904054023 78 0 0.0 0.0 0.00 0.00 0.00 84 1017.5
20260904053522 78 0 0.0 0.0 0.00 0.00 0.00 84 1017.5
20260904053044 78 0 0.0 0.0 0.00 0.00 0.00 84 1017.6
20260904052525 78 0 0.0 0.0 0.00 0.00 0.00 84 1017.7
20260904052024 78 0 0.0 0.0 0.00 0.00 0.00 83 1017.7
20260904051546 79 0 0.0 0.0 0.00 0.00 0.00 83 1017.8
20260904051023 79 0 0.0 0.0 0.00 0.00 0.00 83 1017.8
20260904050521 79 0 0.0 0.0 0.00 0.00 0.00 83 1017.8
20260904050043 79 0 0.0 0.0 0.00 0.00 0.00 83 1017.9
20260904045523 79 0 0.0 0.0 0.00 0.00 0.00 82 1017.9
20260904045023 79 0 0.0 0.0 0.00 0.00 0.00 82 1017.9
20260904044542 79 0 0.0 0.0 0.00 0.00 0.00 82 1018.0
20260904044025 79 0 0.0 0.0 0.00 0.00 0.00 82 1018.0
20260904043522 80 0 0.0 0.0 0.00 0.00 0.00 82 1018.0
20260904043047 80 0 0.0 0.0 0.00 0.00 0.00 81 1018.0
20260904042523 80 0 0.0 0.0 0.00 0.00 0.00 81 1018.0
20260904042024 80 0 0.0 0.0 0.00 0.00 0.00 81 1017.9
20260904041546 80 0 0.0 0.0 0.00 0.00 0.00 80 1017.9
20260904041023 80 0 0.0 0.0 0.00 0.00 0.00 80 1018.0
20260904040524 81 0 0.0 0.0 0.00 0.00 0.00 80 1017.9
20260904040046 81 0 0.0 0.0 0.00 0.00 0.00 81 1018.0
20260904035525 81 0 0.0 0.0 0.00 0.00 0.00 80 1018.0
20260904035021 81 0 0.0 0.0 0.00 0.00 0.00 80 1018.0
20260904034550 81 0 0.0 0.0 0.00 0.00 0.00 80 1018.1
20260904034024 81 0 0.0 0.0 0.00 0.00 0.00 79 1018.2
20260904033524 81 0 0.0 0.0 0.00 0.00 0.00 79 1018.1
20260904033048 81 0 0.0 0.0 0.00 0.00 0.00 80 1018.1
20260904032524 81 0 0.0 0.0 0.00 0.00 0.00 79 1018.0
20260904032023 82 0 0.0 0.0 0.00 0.00 0.00 79 1018.1
20260904031543 82 0 0.0 0.0 0.00 0.00 0.00 79 1018.1
20260904031022 82 0 0.0 0.0 0.00 0.00 0.00 78 1018.1
20260904030525 82 0 0.0 0.0 0.00 0.00 0.00 78 1018.1
20260904030044 82 0 0.0 0.0 0.00 0.00 0.00 78 1018.1
20260904025524 82 0 0.0 0.0 0.00 0.00 0.00 77 1018.2
20260904025022 82 0 0.0 0.0 0.00 0.00 0.00 77 1018.1
20260904024548 82 0 0.0 0.0 0.00 0.00 0.00 77 1018.1
20260904024024 82 0 0.0 0.0 0.00 0.00 0.00 77 1018.2
20260904023526 83 0 0.0 0.0 0.00 0.00 0.00 76 1018.1
20260904023057 83 0 0.0 0.0 0.00 0.00 0.00 75 1018.1
20260904022525 83 0 0.0 0.0 0.00 0.00 0.00 75 1018.1
20260904022024 83 0 0.0 0.0 0.00 0.00 0.00 75 1018.0
20260904021545 83 0 0.0 0.0 0.00 0.00 0.00 74 1018.0
20260904021022 83 0 0.0 0.0 0.00 0.00 0.00 74 1017.9
20260904020524 84 0 0.0 0.0 0.00 0.00 0.00 74 1017.9
20260904020042 84 0 0.0 0.0 0.00 0.00 0.00 73 1017.9
20260904015525 84 0 0.0 0.0 0.00 0.00 0.00 73 1017.9
20260904015025 84 0 0.0 0.0 0.00 0.00 0.00 73 1017.9
20260904014557 84 0 0.0 0.0 0.00 0.00 0.00 72 1017.6
20260904014021 84 0 0.0 0.0 0.00 0.00 0.00 71 1017.5
20260904013524 85 0 0.0 0.0 0.00 0.00 0.00 71 1017.7
20260904013047 85 0 0.0 0.0 0.00 0.00 0.00 71 1017.6
20260904012527 85 0 0.0 0.0 0.00 0.00 0.00 71 1017.4
20260904012024 85 0 0.0 0.0 0.00 0.00 0.00 71 1017.4
20260904011545 85 0 0.0 0.0 0.00 0.00 0.00 71 1017.4
20260904011024 85 0 0.0 0.0 0.00 0.00 0.00 70 1017.3
20260904010523 86 0 0.0 0.0 0.00 0.00 0.00 70 1017.1
20260904010051 86 0 0.0 0.0 0.00 0.00 0.00 69 1017.1
20260904005523 86 0 0.0 0.0 0.00 0.00 0.00 69 1016.9
20260904005022 86 0 0.0 0.0 0.00 0.00 0.00 69 1016.8
20260904004546 87 0 0.0 0.0 0.00 0.00 0.00 69 1016.8
20260904004023 87 0 0.0 0.0 0.00 0.00 0.00 69 1016.6
20260904003523 87 0 0.0 0.0 0.00 0.00 0.00 69 1016.5
20260904003043 87 0 0.0 0.0 0.00 0.00 0.00 68 1016.4
20260904002525 88 0 0.0 0.0 0.00 0.00 0.00 68 1016.3